Location: Brantford
(43.1330°N, 80.2670°W)
Time: 01:30:50
(UTC-05:00)

ISS - Pass Details

Date: 30 October 2019
Orbit: 412 x 421 km, 51.6° (Epoch: 12 November)

Event Time Altitude Azimuth Distance (km) Brightness Sun altitude
Exits shadow 06:56:37 15° 300° (WNW) 1,225 -2.0 -10.8°
Maximum altitude 06:58:32 24° 345° (NNW) 919 -2.3 -10.5°
Drops below altitude 10° 07:01:22 10° 42° (NE) 1,506 -0.5 -10.0°
Sets 07:03:44 0° 57° (ENE) 2,370 0.9 -9.5°
